Location: Clair
(33.8067°N, 117.9845°W)
Time: 18:25:23
(UTC+00:00)

Cosmos 1802 Rocket - Pass Details

Date: 14 February 2026
Orbit: 954 x 1010 km, 82.9° (Epoch: 8 March)

Event Time Altitude Azimuth Distance (km) Brightness Sun altitude
Rises 13:54:57 0° 177° (S) 3,624 7.2 -9.4°
Reaches altitude 10° 13:57:26 10° 174° (S) 2,687 6.5 -8.9°
Maximum altitude 14:03:32 68° 93° (E) 1,041 4.5 -7.7°
Drops below altitude 10° 14:09:44 10° 12° (NNE) 2,737 6.4 -6.4°
Sets 14:12:17 0° 10° (N) 3,697 7.0 -5.9°
